Location: Newark
(48.0000°N, 67.0000°E)
Time: 18:14:55
(UTC+00:00)

FO-29 - Visible Passes

Search period start: 10 April 2020 00:00
Search period end: 20 April 2020 00:00
Orbit: 800 x 1321 km, 98.6° (Epoch: 09 April)

Date Brightness Start Highest point End Pass type
(mag) Time Alt. Az. Time Alt. Az. Time Alt. Az.
10 Apr 12.1 17:48:05 10° ENE 17:51:36 14° NE 17:54:59 10° NNE visible
10 Apr 10.4 19:34:24 51° E 19:35:15 53° ENE 19:42:11 10° N visible
10 Apr 10.6 21:20:52 39° W 21:20:52 39° W 21:27:10 10° NNW visible
11 Apr 11.4 18:38:34 23° E 18:40:46 27° ENE 18:46:27 10° N visible
11 Apr 9.8 20:25:02 82° WSW 20:25:10 82° WSW 20:32:24 10° NNW visible
11 Apr 11.4 22:11:31 19° W 22:11:31 19° W 22:15:58 10° NW visible
12 Apr 12.1 17:43:41 10° ENE 17:46:44 13° NE 17:49:39 10° NNE visible
12 Apr 10.5 19:29:13 47° E 19:30:20 50° ENE 19:37:06 10° N visible
12 Apr 10.5 21:15:41 41° W 21:15:41 41° W 21:22:10 10° NNW visible
13 Apr 11.5 18:33:24 21° E 18:35:52 25° ENE 18:41:18 10° N visible
13 Apr 9.8 20:19:52 82° SSW 20:20:14 86° WSW 20:27:21 10° NNW visible
13 Apr 11.3 22:06:21 20° W 22:06:21 20° W 22:11:04 10° NW visible
14 Apr 12.1 17:39:23 10° ENE 17:41:49 12° NE 17:44:13 10° NNE visible
14 Apr 10.5 19:24:03 43° E 19:25:25 47° ENE 19:32:00 10° N visible
14 Apr 10.4 21:10:32 44° W 21:10:32 44° W 21:17:10 10° NNW visible
15 Apr 11.5 18:28:14 19° E 18:30:57 23° ENE 18:36:08 10° N visible
15 Apr 9.8 20:14:42 78° SSE 20:15:18 90° NE 20:22:18 10° NNW visible
15 Apr 11.3 22:01:11 21° W 22:01:11 21° W 22:06:09 10° NW visible
16 Apr 12.1 17:35:16 10° ENE 17:36:56 11° NE 17:38:34 10° NNE visible
16 Apr 10.6 19:18:53 39° E 19:20:29 44° ENE 19:26:54 10° N visible
16 Apr 10.3 21:05:22 46° W 21:05:28 46° W 21:12:08 10° NNW visible
17 Apr 11.6 18:23:04 17° E 18:26:03 22° NE 18:30:57 10° N visible
17 Apr 9.8 20:09:33 73° SSE 20:10:21 86° ENE 20:17:13 10° NNW visible
17 Apr 11.2 21:56:01 22° W 21:56:01 22° W 22:01:12 10° NW visible
18 Apr 10.7 19:13:44 36° E 19:15:33 42° ENE 19:21:47 10° N visible
18 Apr 10.2 21:00:12 48° WSW 21:00:30 48° W 21:07:06 10° NNW visible
19 Apr 11.6 18:17:55 15° E 18:21:08 20° NE 18:25:44 10° N visible
19 Apr 9.8 20:04:23 68° SE 20:05:24 82° ENE 20:12:08 10° NNW visible
19 Apr 11.1 21:50:52 23° W 21:50:58 23° W 21:56:14 10° NW visible
